TimeEST,TemperatureF,Dew PointF,Humidity,Sea Level PressureIn,VisibilityMPH,Wind Direction,Wind SpeedMPH,Gust SpeedMPH,PrecipitationIn,Events,Conditions,WindDirDegrees,DateUTC
12:51 AM,43.0,28.0,56,30.49,10.0,East,3.5,-,N/A,,Clear,100,2012-11-18 05:51:00
1:51 AM,39.9,28.0,63,30.48,10.0,East,5.8,-,N/A,,Clear,80,2012-11-18 06:51:00
2:51 AM,41.0,27.0,57,30.48,10.0,Calm,Calm,-,N/A,,Clear,0,2012-11-18 07:51:00
3:51 AM,37.9,27.0,65,30.48,10.0,East,5.8,-,N/A,,Clear,90,2012-11-18 08:51:00
4:51 AM,37.9,27.0,65,30.48,10.0,East,4.6,-,N/A,,Clear,90,2012-11-18 09:51:00
5:51 AM,37.4,26.6,65,30.47,10.0,Calm,Calm,-,N/A,,Clear,0,2012-11-18 10:51:00
6:51 AM,35.1,26.1,70,30.49,10.0,Calm,Calm,-,N/A,,Clear,0,2012-11-18 11:51:00
7:51 AM,37.0,26.1,65,30.50,10.0,Calm,Calm,-,N/A,,Partly Cloudy,0,2012-11-18 12:51:00
8:51 AM,41.0,28.0,60,30.51,10.0,Calm,Calm,-,N/A,,Scattered Clouds,0,2012-11-18 13:51:00
9:51 AM,45.0,28.0,52,30.51,10.0,ESE,3.5,-,N/A,,Scattered Clouds,120,2012-11-18 14:51:00
10:51 AM,48.0,28.0,46,30.51,10.0,East,3.5,-,N/A,,Partly Cloudy,90,2012-11-18 15:51:00
11:51 AM,52.0,25.0,35,30.48,10.0,South,6.9,-,N/A,,Scattered Clouds,170,2012-11-18 16:51:00
12:51 PM,53.6,24.8,33,30.44,10.0,Variable,3.5,-,N/A,,Scattered Clouds,0,2012-11-18 17:51:00
1:51 PM,57.0,24.1,28,30.43,10.0,Calm,Calm,-,N/A,,Scattered Clouds,0,2012-11-18 18:51:00
2:51 PM,57.9,27.0,31,30.42,10.0,ESE,5.8,-,N/A,,Scattered Clouds,110,2012-11-18 19:51:00
3:51 PM,57.0,28.0,33,30.41,10.0,East,6.9,-,N/A,,Scattered Clouds,100,2012-11-18 20:51:00
4:51 PM,53.1,28.9,40,30.41,10.0,East,5.8,-,N/A,,Scattered Clouds,100,2012-11-18 21:51:00
5:51 PM,51.1,27.0,39,30.43,10.0,NE,3.5,-,N/A,,Scattered Clouds,50,2012-11-18 22:51:00
6:51 PM,46.9,28.0,48,30.43,10.0,NE,3.5,-,N/A,,Scattered Clouds,50,2012-11-18 23:51:00
7:51 PM,43.0,28.0,56,30.43,10.0,NE,3.5,-,N/A,,Partly Cloudy,50,2012-11-19 00:51:00
8:51 PM,39.9,28.9,65,30.43,10.0,Calm,Calm,-,N/A,,Clear,0,2012-11-19 01:51:00
9:51 PM,37.9,28.0,68,30.43,10.0,Calm,Calm,-,N/A,,Clear,0,2012-11-19 02:51:00
10:51 PM,36.0,28.0,73,30.43,10.0,Calm,Calm,-,N/A,,Clear,0,2012-11-19 03:51:00
11:51 PM,34.0,28.0,79,30.42,10.0,North,3.5,-,N/A,,Partly Cloudy,10,2012-11-19 04:51:00